[[{"header":{"parameterUnit":"m.s-1","parameterCategory":1,"la1":30.2991,"la2":30.254,"lo1":-89.0895,"lo2":-89.0444,"dy":0.0017,"dx":0.0017,"nx":28,"ny":28,"refTime":"2024-10-03T21:00:00:Z","depth":0,"parameterNumber":2,"parameterNumberName":"U-component_of_WINDS"},"data":[0,0,0,0,0,0,0,0,0,0,0,0,0,0,0,0,0,0,0,0,0,0,0,0,0,0,0,0,0,0,0,0,0,0,0,0,0,0,0,0,0,0,0,0,0,0,0,0,0,0,0,0,0,0,0,0,0,0,-3.9788,-3.9789,0,-3.9856,-3.9857,-3.9857,-3.9776,-3.9773,-3.977,-3.9767,-3.9839,-3.9843,-3.9848,0,0,0,0,0,0,0,0,0,0,0,0,0,-3.9589,-3.9593,-3.9788,-3.9789,-3.9789,-3.9856,-3.9857,-3.9858,-3.9776,-3.9772,-3.9769,-3.9765,-3.9837,-3.9843,-3.9849,0,0,0,0,0,0,0,0,0,0,0,0,0,-3.9668,-3.9594,-3.9788,-3.9757,-3.9755,-3.9856,-3.9857,-3.9858,-3.9777,-3.9772,-3.9768,-3.9764,-3.9835,-3.9842,-3.9849,-3.9985,0,0,-3.9871,-3.9874,0,0,0,0,0,0,0,0,-3.9664,-3.9676,-3.976,-3.9759,-3.9757,-3.9803,-3.9813,-3.99,-3.9778,-3.9769,-3.9767,-3.9761,-3.9831,-3.9838,-3.9861,-3.9988,-3.9991,-3.9872,-3.9876,-3.9879,-3.9881,0,0,0,0,0,0,0,-3.9658,-3.9672,-3.9815,-3.9762,-3.976,-3.974,-3.9746,-3.9829,-3.9824,-3.9769,-3.9763,-3.9772,-3.9829,-3.9854,-3.9862,-3.9992,-3.9872,-3.9878,-3.9882,-3.9885,-4.0234,-4.0239,0,0,0,0,0,0,-3.9656,-3.9668,-3.9813,-3.9817,-3.9698,-3.9747,-3.9754,-3.9793,-3.9823,-3.9824,-3.9776,-3.9768,-3.9844,-3.9854,-3.9864,-4.0025,-3.9879,-3.9886,-3.989,-4.0229,-4.0235,-4.0241,0,0,0,0,0,0,-3.9652,-3.967,-3.981,-3.9741,-3.9757,-3.9756,-3.9799,-3.9796,-3.9821,-3.9829,-3.9828,-3.9803,-3.9841,-3.9854,-3.9955,-4.0027,-3.9889,-3.9895,-4.0224,-4.0231,-4.0238,-4.0349,0,0,0,0,0,0,-3.9647,-3.9669,-3.972,-3.9743,-3.9761,-3.99,-3.9804,-3.9801,-3.9834,-3.9824,-3.9853,-3.9854,-3.9838,-3.9945,-3.9962,-4.0034,-3.9901,-4.0217,-4.0227,-4.0236,-4.0339,-4.0359,-4.0376,0,0,0,0,0,-3.964,-3.9749,-3.9723,-3.9741,-3.9825,-3.9904,-3.9915,-3.9894,-3.984,-3.9891,-3.9896,-3.9853,-4.0015,-3.9956,-3.9975,-4.005,-4.0213,-4.0224,-4.0235,-4.033,-4.0355,-4.0376,0,0,0,0,0,0,-3.9736,-3.9751,-3.9723,-3.9842,-3.9872,-3.989,-3.9955,-3.9921,-3.9968,-3.9957,-3.993,-3.9937,-4.0045,-4.0057,-3.9991,-4.0182,-4.0105,-4.0121,-4.0171,-4.0195,-4.0213,-4.0209,-3.9907,0,0,0,0,0,-3.977,-3.9832,-3.9843,-3.9947,-3.9963,-3.9957,-3.999,-3.9972,-4.0002,-4.0015,-4.0027,-4.0059,-4.0117,-4.0156,-4.021,-4.0339,-4.0345,-4.04,-4.0419,-4.0434,-4.0449,-4.0519,-4.0544,-4.0278,-4.0278,-4.0278,0,0,-3.9843,-3.9859,-3.99,-3.9967,-3.9988,-4.0054,-3.9968,-4.0041,-4.009,-4.0026,-4.0123,-4.0133,-4.0166,-4.0283,-4.0334,-4.0296,-4.0523,-4.0449,-4.0461,-4.0467,-4.0533,-4.0558,-4.0581,-4.0286,-4.0284,-4.0283,0,0,-4.001,-4.0028,-4.0117,-4.014,-4.0172,-4.0167,-4.0188,-4.0211,-4.0215,-4.0311,-4.0265,-4.0323,-4.0423,-4.045,-4.0476,-4.0652,-4.0615,-4.067,-4.077,-4.0839,-4.086,-4.0878,-4.0943,-4.0966,-4.0684,-4.0685,-4.0685,0,-4.0096,-4.0193,-4.0167,-4.0244,-4.0275,-4.0218,-4.0309,-4.0332,-4.0382,-4.0405,-4.0361,-4.0486,-4.0505,-4.0627,-4.067,-4.0693,-4.0717,-4.0668,-4.0859,-4.0877,-4.0894,-4.0955,-4.0979,-4.0691,-4.0691,-4.069,-4.0689,0,-4.0299,-4.0367,-4.0435,-4.0483,-4.0522,-4.0605,-4.0592,-4.0634,-4.0612,-4.0611,-4.071,-4.073,-4.0788,-4.0815,-4.0794,-4.0934,-4.091,-4.0863,-4.0785,-4.0926,-4.0983,-4.1006,-4.0701,-4.0699,-4.0697,-4.0695,0,0,-4.053,-4.0562,-4.0587,-4.0609,-4.064,-4.0693,-4.0774,-4.0829,-4.0866,-4.0902,-4.097,-4.1056,-4.1013,-4.1043,-4.1024,-4.1084,-4.1224,-4.103,-4.103,-4.1067,-4.1382,-4.1418,-4.1446,-4.1198,-4.1203,-4.1206,-4.1379,0,-4.0698,-4.0837,-4.0816,-4.0951,-4.1014,-4.0961,-4.1031,-4.1059,-4.1061,-4.1115,-4.1116,-4.1178,-4.1115,-4.1133,-4.119,-4.1195,-4.1287,-4.1182,-4.1263,-4.1266,-4.1259,-4.1475,-4.1515,-4.1677,-4.1401,-4.1405,-4.1408,0,-4.0913,-4.0956,-4.1098,-4.112,-4.1146,-4.1209,-4.1259,-4.131,-4.1341,-4.1337,-4.1371,-4.1341,-4.1423,-4.1342,-4.1455,-4.1384,-4.1415,-4.1423,-4.1428,-4.1437,-4.1347,-4.1492,-4.1728,-4.1754,-4.1442,-4.144,-4.1437,0,-4.107,-4.1163,-4.1259,-4.1279,-4.1307,-4.1353,-4.1367,-4.1392,-4.1427,-4.147,-4.1493,-4.1545,-4.1574,-4.1615,-4.1601,-4.1543,-4.1717,-4.1635,-4.1718,-4.1719,-4.1759,-4.1757,-4.2006,-4.1776,-4.1776,-4.1776,-4.1775,0,-4.1261,-4.1351,-4.133,-4.139,-4.1489,-4.1462,-4.1561,-4.1568,-4.1591,-4.1652,-4.1609,-4.1667,-4.1643,-4.17,-4.1689,-4.1785,-4.1798,-4.1799,-4.1795,-4.1804,-4.1804,-4.1826,-4.1815,-4.1782,-4.1781,-4.1779,-4.1778,0,-4.1454,-4.1443,-4.1546,-4.1563,-4.1569,-4.1642,-4.1657,-4.1713,-4.171,-4.1788,-4.1805,-4.1801,-4.1866,-4.1855,-4.1927,-4.1919,-4.204,-4.2021,-4.203,-4.2026,-4.2111,-4.2104,-4.2385,-4.2421,-4.2166,-4.2168,-4.217,0,-4.1578,-4.1645,-4.1669,-4.1707,-4.1724,-4.1784,-4.1819,-4.1796,-4.1834,-4.1874,-4.1926,-4.1986,-4.2034,-4.214,-4.2145,-4.2199,-4.2183,-4.2277,-4.2191,-4.2198,-4.2187,-4.2184,-4.2191,-4.2295,-4.2298,-4.2301,-4.2303,0,-4.18,-4.1791,-4.1843,-4.1893,-4.1936,-4.1975,-4.2009,-4.2042,-4.2022,-4.2067,-4.2133,-4.2169,-4.2242,-4.2304,-4.2355,-4.2369,-4.2334,-4.2329,-4.2352,-4.2363,-4.2366,-4.2367,-4.2079,-4.2324,-4.2321,-4.232,-4.2319,-4.2318,-4.1963,-4.202,-4.2047,-4.2106,-4.2129,-4.2162,-4.2216,-4.222,-4.2274,-4.2331,-4.2314,-4.2388,-4.2417,-4.2482,-4.2502,-4.2561,-4.2526,-4.2558,-4.2567,-4.2576,-4.2587,-4.2354,-4.2569,-4.2569,-4.2568,-4.2568,-4.2567,0,-4.2184,-4.2198,-4.2252,-4.2302,-4.2349,-4.2309,-4.2345,-4.2387,-4.2453,-4.2482,-4.2529,-4.2605,-4.2664,-4.2672,-4.2729,-4.2774,-4.2759,-4.279,-4.2787,-4.2792,-4.2614,-4.2589,-4.2801,-4.2801,-4.2801,-4.2801,-4.2801,-4.2801,-4.2305,-4.2401,-4.2395,-4.2502,-4.2515,-4.2587,-4.2612,-4.2642,-4.2665,-4.2751,-4.28,-4.2804,-4.2826,-4.2883,-4.2936,-4.2937,-4.296,-4.2998,-4.2993,-4.2827,-4.2804,-4.2782,-4.2759,-4.3003,-4.3003,-4.3166,-4.3168,-4.3169]},{"header":{"parameterUnit":"m.s-1","parameterCategory":1,"la1":30.2991,"la2":30.254,"lo1":-89.0895,"lo2":-89.0444,"dy":0.0017,"dx":0.0017,"nx":28,"ny":28,"refTime":"2024-10-03T21:00:00:Z","depth":0,"parameterNumber":3,"parameterNumberName":"V-component_of_WINDS"},"data":[0,0,0,0,0,0,0,0,0,0,0,0,0,0,0,0,0,0,0,0,0,0,0,0,0,0,0,0,0,0,0,0,0,0,0,0,0,0,0,0,0,0,0,0,0,0,0,0,0,0,0,0,0,0,0,0,0,0,-4.0719,-4.0719,0,-4.0711,-4.0711,-4.071,-4.0654,-4.0653,-4.0651,-4.065,-4.0642,-4.0643,-4.0644,0,0,0,0,0,0,0,0,0,0,0,0,0,-4.0685,-4.0686,-4.0719,-4.0719,-4.0718,-4.0711,-4.0711,-4.071,-4.0654,-4.0652,-4.0651,-4.0649,-4.0642,-4.0643,-4.0645,0,0,0,0,0,0,0,0,0,0,0,0,0,-4.0691,-4.0686,-4.0719,-4.0689,-4.0687,-4.0711,-4.0711,-4.071,-4.0654,-4.0652,-4.065,-4.0648,-4.0642,-4.0643,-4.0645,-4.0697,0,0,-4.065,-4.065,0,0,0,0,0,0,0,0,-4.069,-4.0692,-4.0694,-4.0691,-4.0688,-4.0681,-4.0696,-4.0706,-4.0655,-4.0667,-4.065,-4.0647,-4.0657,-4.0657,-4.066,-4.0696,-4.0696,-4.065,-4.0651,-4.0652,-4.0652,0,0,0,0,0,0,0,-4.069,-4.0692,-4.0715,-4.0694,-4.0691,-4.0677,-4.0675,-4.0698,-4.0674,-4.0666,-4.0661,-4.0661,-4.0655,-4.0659,-4.066,-4.0696,-4.065,-4.0651,-4.0652,-4.0653,-4.0772,-4.0774,0,0,0,0,0,0,-4.0694,-4.0692,-4.0716,-4.0715,-4.0684,-4.0679,-4.0677,-4.0686,-4.0673,-4.0669,-4.0663,-4.0659,-4.0657,-4.0658,-4.0659,-4.0718,-4.0652,-4.0653,-4.0654,-4.077,-4.0773,-4.0775,0,0,0,0,0,0,-4.0693,-4.0696,-4.0716,-4.0703,-4.0704,-4.0682,-4.0692,-4.0687,-4.069,-4.0671,-4.0667,-4.0671,-4.0655,-4.0657,-4.0687,-4.0717,-4.0654,-4.0655,-4.0768,-4.0771,-4.0774,-4.0836,0,0,0,0,0,0,-4.0693,-4.0697,-4.0716,-4.0703,-4.0705,-4.0745,-4.0693,-4.0688,-4.0693,-4.0687,-4.0678,-4.0674,-4.0654,-4.0685,-4.0689,-4.0718,-4.0657,-4.0765,-4.0769,-4.0773,-4.0832,-4.0841,-4.085,0,0,0,0,0,-4.0692,-4.0734,-4.0717,-4.0721,-4.0729,-4.0746,-4.0747,-4.0723,-4.0696,-4.0715,-4.0703,-4.0675,-4.0713,-4.0689,-4.0693,-4.0723,-4.0763,-4.0768,-4.0773,-4.0828,-4.084,-4.085,0,0,0,0,0,0,-4.0752,-4.0732,-4.0713,-4.0753,-4.0752,-4.0737,-4.076,-4.0736,-4.0743,-4.0737,-4.0707,-4.0705,-4.074,-4.0734,-4.0707,-4.0771,-4.0733,-4.0739,-4.0774,-4.0785,-4.0794,-4.0794,-4.0658,0,0,0,0,0,-4.077,-4.0785,-4.0768,-4.0805,-4.0805,-4.0783,-4.079,-4.0771,-4.0768,-4.0767,-4.0757,-4.0756,-4.0768,-4.0776,-4.0786,-4.0831,-4.0827,-4.0853,-4.0862,-4.087,-4.0875,-4.0897,-4.0908,-4.0791,-4.0791,-4.0791,0,0,-4.0807,-4.0798,-4.081,-4.0817,-4.0813,-4.083,-4.0783,-4.0803,-4.0815,-4.0771,-4.0798,-4.0791,-4.0787,-4.0825,-4.0841,-4.0821,-4.0907,-4.0876,-4.0882,-4.0883,-4.0904,-4.0915,-4.0925,-4.0795,-4.0794,-4.0794,0,0,-4.0883,-4.0879,-4.0908,-4.0905,-4.0901,-4.0886,-4.0893,-4.0881,-4.0875,-4.0902,-4.0869,-4.0883,-4.0904,-4.0902,-4.0904,-4.0979,-4.0953,-4.0983,-4.1031,-4.1053,-4.1062,-4.107,-4.1095,-4.1105,-4.0989,-4.0989,-4.0989,0,-4.093,-4.0953,-4.0927,-4.0948,-4.0952,-4.0912,-4.0941,-4.094,-4.094,-4.0943,-4.0921,-4.0946,-4.0941,-4.0977,-4.0995,-4.0998,-4.1005,-4.0984,-4.1063,-4.107,-4.1077,-4.1102,-4.1111,-4.0992,-4.0992,-4.0992,-4.0991,0,-4.1011,-4.1028,-4.1052,-4.1051,-4.1058,-4.1084,-4.106,-4.107,-4.1051,-4.1038,-4.1066,-4.1058,-4.1065,-4.1073,-4.1054,-4.1106,-4.1094,-4.1068,-4.1029,-4.1093,-4.1115,-4.1124,-4.0998,-4.0996,-4.0995,-4.0994,0,0,-4.1125,-4.1108,-4.1117,-4.1116,-4.1107,-4.112,-4.1144,-4.115,-4.1158,-4.1159,-4.1178,-4.1196,-4.1172,-4.1174,-4.1155,-4.1175,-4.1233,-4.1146,-4.1146,-4.1162,-4.1289,-4.1308,-4.1319,-4.1216,-4.1218,-4.1219,-4.1289,0,-4.1196,-4.1235,-4.1211,-4.1254,-4.1269,-4.1231,-4.1251,-4.1249,-4.1237,-4.1248,-4.1236,-4.1249,-4.1216,-4.1217,-4.1235,-4.1223,-4.1258,-4.1217,-4.1233,-4.1234,-4.1234,-4.133,-4.1351,-4.1416,-4.1297,-4.1299,-4.13,0,-4.1286,-4.1289,-4.1333,-4.1321,-4.1326,-4.1345,-4.1348,-4.1359,-4.1355,-4.1345,-4.1348,-4.1324,-4.1346,-4.1308,-4.1338,-4.1311,-4.1316,-4.1311,-4.1312,-4.1312,-4.127,-4.1332,-4.1437,-4.1446,-4.1313,-4.1312,-4.1311,0,-4.1363,-4.1379,-4.1406,-4.1407,-4.1393,-4.1407,-4.1402,-4.1396,-4.1401,-4.1404,-4.1407,-4.1413,-4.1417,-4.1422,-4.14,-4.1375,-4.1433,-4.1393,-4.1425,-4.1425,-4.1438,-4.1437,-4.1544,-4.1443,-4.1443,-4.1443,-4.1443,0,-4.1445,-4.1473,-4.1441,-4.1458,-4.1488,-4.146,-4.1491,-4.1482,-4.1476,-4.1491,-4.1459,-4.1474,-4.1445,-4.1456,-4.144,-4.1466,-4.1468,-4.1461,-4.1456,-4.1463,-4.1464,-4.1465,-4.146,-4.1445,-4.1445,-4.1444,-4.1444,0,-4.1536,-4.1515,-4.1543,-4.1528,-4.1524,-4.1547,-4.1534,-4.1549,-4.1536,-4.1555,-4.1557,-4.1536,-4.1548,-4.1527,-4.1537,-4.1526,-4.1562,-4.1551,-4.1564,-4.156,-4.1592,-4.1589,-4.1703,-4.1716,-4.1608,-4.1609,-4.161,0,-4.1589,-4.1609,-4.1596,-4.1603,-4.16,-4.1612,-4.1617,-4.159,-4.1597,-4.1593,-4.1608,-4.1617,-4.1623,-4.1644,-4.163,-4.1636,-4.1624,-4.1664,-4.1625,-4.1631,-4.1623,-4.1622,-4.1624,-4.1671,-4.1673,-4.1674,-4.1675,0,-4.1685,-4.1674,-4.1682,-4.1686,-4.1692,-4.1694,-4.1694,-4.1702,-4.1674,-4.1683,-4.1694,-4.1698,-4.1707,-4.1717,-4.172,-4.1715,-4.169,-4.1687,-4.1694,-4.1701,-4.1707,-4.1703,-4.1584,-4.1684,-4.1683,-4.1683,-4.1682,-4.1682,-4.1758,-4.1774,-4.1767,-4.1776,-4.1773,-4.1773,-4.1786,-4.1774,-4.1783,-4.1788,-4.1772,-4.1787,-4.1782,-4.1783,-4.1781,-4.1792,-4.1775,-4.1786,-4.1789,-4.1792,-4.1796,-4.1707,-4.1793,-4.1793,-4.1793,-4.1792,-4.1792,0,-4.1852,-4.1845,-4.1854,-4.1854,-4.1861,-4.1837,-4.1835,-4.1843,-4.1856,-4.1853,-4.1859,-4.1872,-4.1881,-4.1867,-4.1873,-4.1885,-4.1874,-4.1888,-4.1886,-4.1885,-4.1812,-4.1804,-4.1896,-4.1896,-4.1896,-4.1896,-4.1896,-4.1896,-4.1901,-4.1926,-4.1914,-4.1937,-4.193,-4.1944,-4.1945,-4.1945,-4.1942,-4.1958,-4.1964,-4.1955,-4.1948,-4.1953,-4.196,-4.1956,-4.1959,-4.1977,-4.1969,-4.19,-4.189,-4.188,-4.1873,-4.1978,-4.1978,-4.204,-4.2041,-4.2041]}]]